Location: Santa Maria di Sala
(45.5070°N, 12.0300°E)
Time: 13:43:59
(UTC+02:00)

Envisat - Pass Details

Date: 18 April 2024
Orbit: 762 x 764 km, 98.3° (Epoch: 26 May)

Event Time Altitude Azimuth Distance (km) Brightness Sun altitude
Rises 03:52:46 0° 22° (NNE) 3,239 7.4 -22.9°
Reaches altitude 10° 03:55:18 10° 31° (NNE) 2,308 6.5 -22.6°
Maximum altitude 03:59:54 34° 96° (E) 1,253 4.4 -22.0°
Enters shadow 04:03:56 13° 157° (SSE) 2,112 5.1 -21.5°
